Retour au catalogue

THOR ABLESTAR DEB

ActifLEO
NORAD 561·DEBRIS·🇺🇸 United States

Lancé Jun 29, 1961 depuis Cape Canaveral Space Force Station

Loading…

Prochains Passages (prochaines 24 heures)

TLE

FraisSource: Space-Track

Époque: Sep 14, 2026, 10:23 UTC

1 00561U 61015GT  26257.43299981  .00000598  00000-0  23619-2 0  9997
2 00561  67.7558 172.3063 0630188 237.1747 234.0292 12.41558789952201

Suivez THOR ABLESTAR DEB en temps réel avec AllMySat

Download on the App Store